Tracking 21076 objects as of 10-Aug-2020
HD Live streaming from Space Station
objects crossing your sky now
Track the most recent launched group of Starlink satellites

H-2A R/B(2)

Track H-2A R/B(2) now!


NORAD ID: 27518
Int'l Code: 2002-042D
Perigee: 461.2 km
Apogee: 34,396.1 km
Inclination: 28.4 °
Period: 609.0 minutes
Semi major axis: 23799 km
RCS: 24.23 m2 (large)
Launch date: September 10, 2002
Source: Japan (JPN)
Launch site: TANEGASHIMA SPACE CENTER (TNSTA)

Note: This is a ROCKET BODY
aabbcc
Your satellite tracking list
Your tracking list is empty




NASA's NSSDC Master Catalog

Two Line Element Set (TLE):
1 27518U 02042D   20223.48602838 -.00000052 +00000-0 -10341-3 0  9990
2 27518 028.4471 274.3194 7129289 097.6025 341.1743 02.36454508154705
Source of the keplerian elements: AFSPC